Taurus 1
1 44530U 19059C   25155.81156554  .00006236  00000-0  11513-2 0  9993
2 44530  98.6063 294.9785 0009950  58.8310 301.3866 14.65803609303243
Duchifat 3
1 44854U 19089C   25155.91117236  .00045835  00000-0  90322-3 0  9994
2 44854  36.9444  24.8740 0005078 285.1267  74.8928 15.46217155302227
TO-108
1 44881U 19093C   25155.84509754  .00001130  00000-0  13669-3 0  9990
2 44881  97.7924 231.5937 0012472 244.3789 115.6138 14.85593235295374
FloripaSat 1
1 44885U 19093G   25155.80672264  .00005622  00000-0  47524-3 0  9994
2 44885  97.8179 243.3975 0009265 212.6158 147.4493 14.98441740296036
RS-44
1 44909U 19096E   25155.55033431  .00000005  00000-0 -16009-4 0  9999
2 44909  82.5221 230.6193 0216464 307.5357  50.6246 12.79740810254042
UPMSat 2
1 46276U 20061E   25155.77358504  .00073420  00000-0  65715-3 0  9994
2 46276  97.2440 229.9960 0001924 164.6929 195.4391 15.68123686264711
SALSAT
1 46495U 20068K   25155.49026912  .00006615  00000-0  28676-3 0  9995
2 46495  97.8599 133.2839 0011571 170.9715 189.1730 15.22680623257751
CubeSX-Sirius-HSE
1 47951U 21022V   25155.71954562  .02560026  24453-5  14182-2 0  9992
2 47951  97.4093  69.9985 0008138 202.6179 157.4752 16.19412079233091
CubeSX-HSE
1 47952U 21022W   25155.72960742  .02367597  24387-5  13705-2 0  9995
2 47952  97.4063  70.2815 0008372 201.6321 158.4614 16.18823297233112
GRBAlpha
1 47959U 21022AD  25155.81928293  .01372305  12799-2  14768-2 0  9990
2 47959  97.3983  70.3569 0007234 181.9928 178.1328 16.10301286231946
TUBIN
1 48900U 21059X   25155.72181101  .00040624  00000-0  49940-3 0  9992
2 48900  97.6750 324.5550 0003175 230.4787 129.6188 15.60167323219289
LEDSAT
1 49069U 21073D   25155.75352978  .00063818  00000-0  77976-3 0  9990
2 49069  97.3890 237.0909 0010218 102.4981 257.7419 15.60168827210689
CUTE
1 49263U 21088D   25155.18280235  .00011588  00000-0  23359-3 0  9998
2 49263  97.4510 231.2821 0006756 253.6975 106.3531 15.46695583203592
TeikyoSat 4
1 49396U 21102B   25155.70603571  .00002274  00000-0  15300-3 0  9991
2 49396  97.4108 194.3109 0013619 144.1456 216.0689 15.07625592195812
Z-Sat
1 49399U 21102E   25155.79522784  .00005138  00000-0  28225-3 0  9991
2 49399  97.3803 197.4628 0019723 118.7115 241.6102 15.14375360196253
KOSEN 1
1 49402U 21102H   25155.66847570  .00006809  00000-0  31578-3 0  9996
2 49402  97.3709 200.7177 0017701  96.7487 263.5763 15.20233267196545
HO-113
1 50466U 21131B   25155.83026105  .00000703  00000-0  23325-3 0  9990
2 50466  98.5099 245.2064 0005064 139.3110 220.8458 14.40809941180760
IRIS-A
1 51044U 22002BN  25155.86487672  .04775476  24416-5  89611-3 0  9996
2 51044  97.2982 237.3737 0012961 260.6371  99.3459 16.31899224189168
Foresail-1
1 52766U 22057AL  25155.46549404  .00340977  48028-4  87506-3 0  9991
2 52766  97.6032 306.9085 0007556 253.0743 106.9704 15.95209217169085
SNUGLITE 2
1 52899U 22065F   25155.36134363  .00001254  00000-0  25267-3 0  9992
2 52899  98.1681 297.3857 0008757 125.1029 235.0995 14.63201775155725
UmKA 1 (RS40S)
1 57172U 23091G   25155.85240716  .00005646  00000-0  30260-3 0  9993
2 57172  97.5582 211.2591 0014005 357.7381   2.3786 15.15315139106765
CubeBel-2 (EU11S)
1 57175U 23091K   25155.82862343  .00010535  00000-0  50200-3 0  9998
2 57175  97.5583 212.3527 0011867   7.3002 352.8403 15.19246975106833
VERONIKA
1 58261U 23174F   25155.80439638  .00155337  00000-0  13165-2 0  9990
2 58261  97.4118 241.6961 0002406 105.2508 254.9020 15.69199519 87930
ENSO
1 58470U 23185J   25155.81298771  .00061730  00000-0  90221-3 0  9998
2 58470  97.3736 230.7802 0008095 106.9228 253.2915 15.55397639 84296
EIRSAT-1
1 58472U 23185L   25155.85548340  .00109449  00000-0  10355-2 0  9993
2 58472  97.3688 232.6455 0005688 119.3981 240.7847 15.66610529 84426
SONATE-2
1 59112U 24043Q   25155.34712277  .00010670  00000-0  30976-3 0  9994
2 59112  97.5125 286.4211 0012296 130.7461 229.4852 15.35614865 69534
MO-122
1 60209U 24125G   25155.55816665  .00015131  00000-0  43152-3 0  9990
2 60209  97.2805   7.2336 0019834 151.5138 208.7195 15.35950372 51187
GRBBeta
1 60237U 24128C   25155.54533667  .00004608  00000-0  35025-3 0  9998
2 60237  61.9911  97.1111 0051637  56.4103 304.1901 15.02588496 49445
Curium One
1 60242U 24128H   25155.19148617  .00006604  00000-0  46379-3 0  9994
2 60242  61.9810  96.7163 0051564  52.3219 308.2532 15.05026434 49428
ROBUSTA-3A
1 60243U 24128J   25155.25893209  .00006054  00000-0  43245-3 0  9994
2 60243  61.9879  97.2903 0050305  50.0152 310.5340 15.04561072 49429
CatSat
1 60246U 24125J   25155.52599710  .00010119  00000-0  33778-3 0  9991
2 60246  97.2605   6.4729 0044311 111.7508 248.8458 15.30269444 49216
HYPERVIEW-1G (RS66S)
1 61772U 24199AP  25155.78816239  .00017968  00000-0  52411-3 0  9997
2 61772  97.3548  24.6566 0013048 202.2824 157.7854 15.35322472 76224
AO-123
1 61781U 24199AY  25155.80047207  .00006373  00000-0  23312-3 0  9997
2 61781  97.3560  23.6067 0014917 209.0245 151.0167 15.28308979 76155
ZIMSAT 2
1 61783U 24199BA  25155.79132483  .00032202  00000-0  79493-3 0  9999
2 61783  97.3526  25.2368 0013120 198.2303 161.8475 15.40365538 79411
HADES-R (SO-124)
1 62690U 25009CK  25155.17801191  .00019588  00000-0  70087-3 0  9991
2 62690  97.4089 236.0055 0004532 121.6722 238.4960 15.28817147 21322
HYDRA-T
1 62692U 25009CM  25155.16436386  .00018966  00000-0  67362-3 0  9993
2 62692  97.4091 236.0228 0004229 119.7762 240.3899 15.29065586 21320
JINJUSat 1B
1 63210U 25052A   25155.46264384  .00010204  00000-0  46902-3 0  9992
2 63210  97.4424  49.6501 0004063   8.1299 352.0001 15.20549405 12471
NUSHSAT 1
1 63211U 25052B   25155.26091806  .00009858  00000-0  45050-3 0  9994
2 63211  97.4415  49.4511 0004323  14.7864 345.3497 15.20756646 12449
TEVEL2-4
1 63213U 25052D   25155.27348861  .00009016  00000-0  41587-3 0  9990
2 63213  97.4331  49.3487 0004137  35.1527 324.9980 15.20465477 12444
TEVEL2-5
1 63214U 25052E   25155.66888304  .00010182  00000-0  46927-3 0  9994
2 63214  97.4333  49.7377 0004089  33.9496 326.2000 15.20458624 12507
TEVEL2-6
1 63215U 25052F   25155.27600767  .00008590  00000-0  39705-3 0  9993
2 63215  97.4334  49.3467 0004233  35.9068 324.2451 15.20407176 12440
TEVEL2-1
1 63217U 25052H   25155.22050279  .00008704  00000-0  40475-3 0  9990
2 63217  97.4310  49.2424 0004822  44.9140 315.2485 15.20192055 12436
TEVEL2-2
1 63218U 25052J   25155.68156488  .00009490  00000-0  44083-3 0  9992
2 63218  97.4311  49.6968 0004820  44.2620 315.9000 15.20203750 12502
TEVEL2-3
1 63219U 25052K   25155.22090695  .00008693  00000-0  40431-3 0  9997
2 63219  97.4312  49.2424 0004883  45.0773 315.0857 15.20186710 12433
TEVEL2-8
1 63237U 25052AD  25155.28214791  .00007904  00000-0  38056-3 0  9992
2 63237  97.4372  49.2277 0009503  44.5801 315.6196 15.18988290 12437
TEVEL2-9
1 63238U 25052AE  25155.41604210  .00007524  00000-0  36298-3 0  9991
2 63238  97.4373  49.3564 0009589  43.9729 316.2266 15.18933692 12458
TEVEL2-7
1 63239U 25052AF  25155.22024002  .00008288  00000-0  39991-3 0  9997
2 63239  97.4374  49.1584 0009619  45.0009 315.2003 15.18895674 12420
HYDRA-W
1 63490U 25052BL  25155.68409235  .00021894  00000-0  93001-3 0  9991
2 63490  97.4326  49.8608 0013188  38.9470 321.2714 15.22998462 12519
HADES-ICM
1 63492U 25052BN  25155.43483430  .00015870  00000-0  68390-3 0  9995
2 63492  97.4331  49.5879 0013629  42.9817 317.2482 15.22574025 12471
